Regional Weather Roundup
Issued by NWS

Home | Current Version | Previous Version | Graphics & Text | Print | Product List | Glossary On
Versions: 1 2 3 4 5 6 7 8 9 10 11 12 13 14 15 16 17 18 19 20 21 22 23 24 25 26 27 28 29 30 31 32 33 34 35 36 37 38 39 40 41 42 43 44 45 46 47 48 49 50
000
ASUS45 KBOU 211307
RWRCO

WEATHER ROUNDUP FOR COLORADO
NATIONAL WEATHER SERVICE DENVER/BOULDER CO
700 AM MDT THU MAY 21 2015

NOTE: "FAIR" INDICATES FEW OR NO CLOUDS BELOW 12000 FEET WITH NO
SIGNIFICANT WEATHER AND/OR OBSTRUCTIONS TO VISIBILITY.

COZ001>005-013-030-031-211400-
...NORTHWEST COLORADO...

CITY           SKY/WX    TMP DP  RH WIND       PRES   REMARKS
CRAIG          MOSUNNY   37  35  92 CALM      30.16R FOG
HAYDEN         SUNNY     36  30  80 CALM      30.16R
MEEKER         MOSUNNY   38  34  85 NE5       30.14R
MOUNT WERNER   NOT AVBL
STEAMBOAT SPGS SUNNY     35  32  88 CALM      30.17R
WALDEN         SUNNY     32  30  93 SE5       30.21S WCI  27
$$

COZ006>008-011-211400-
...WEST CENTRAL VALLEYS...

CITY           SKY/WX    TMP DP  RH WIND       PRES   REMARKS
GRAND JUNCTION CLOUDY    53  38  56 E10       30.03R
MONTROSE       CLOUDY    47  37  68 CALM      30.10R
EAGLE          MOSUNNY   36  36 100 CALM      30.22R
RIFLE          MOSUNNY   41  36  82 E3        30.10R
DELTA          CLOUDY    49  43  79 SW3       30.07R
NUCLA          CLOUDY    48  37  66 E3        30.12R
$$

COZ017>023-064>068-211400-
...SOUTHWEST COLORADO...

CITY           SKY/WX    TMP DP  RH WIND       PRES   REMARKS
DURANGO        CLOUDY    46  39  76 CALM      30.17R
CORTEZ         CLOUDY    52  41  66 E6        30.10R
PAGOSA SPRINGS CLOUDY    44  38  80 CALM      30.22R
TELLURIDE      CLOUDY    46  23  40 CALM      30.25R
WOLF CREEK PAS NOT AVBL
$$

COZ009-010-012-014-032>034-037-058>063-211400-
...CENTRAL COLORADO...

CITY           SKY/WX    TMP DP  RH WIND       PRES   REMARKS
ASPEN          MOSUNNY   37  31  78 N3        30.18R
BUENA VISTA    CLOUDY    39  37  90 CALM      30.28S
COPPER MTN     SUNNY     37  19  48 SW9       30.36S
BERTHOUD PASS  FAIR      28  21  74 W18G31    30.37S WCI  16
COTTONWOOD PAS CLOUDY    36  34  93 CALM      30.31S
GUNNISON       CLOUDY    36  30  80 SE3       30.25R
KREMMLING      SUNNY     34  32  93 CALM      30.24S
LEADVILLE      MOSUNNY   32  29  88 VRB3      30.30R
SALIDA         CLOUDY    42  40  92 CALM      30.35R
SUNLIGHT       MOSUNNY   39  23  52 CALM        N/A
WILKERSON PASS SNOW      30  28  93 SW9G17    30.36R VSB 1/4 WCI  22
$$

COZ069>075-211400-
...SAN LUIS VALLEY/SANGRE DE CRISTO MOUNTAINS...

CITY           SKY/WX    TMP DP  RH WIND       PRES   REMARKS
ALAMOSA        PTSUNNY   43  39  86 CALM      30.23R
LA VETA PASS     N/A    N/A N/A N/A MISG      30.32S VSB 1/4
SAGUACHE       CLOUDY    41  36  81 N3        30.26R
$$

COZ035-036-038>040-211400-
...NORTHERN COLORADO FRONT RANGE...

CITY           SKY/WX    TMP DP  RH WIND       PRES   REMARKS
DENVER INTL AP PTSUNNY   43  40  89 SE7       30.21S
DMNS CITY PARK   N/A     42  39  89 CALM      30.23R
AURORA         CLOUDY    40  40  99 W1        30.23R
FRONT RANGE AP PTSUNNY   41  39  93 E8        30.23R
ERIE MUNI ARPT CLOUDY    42  41  95 NE3       30.22S
BOULDER MUN AP CLOUDY    41  41 100 NE3       30.22S
CENTENNIAL     CLOUDY    40  39  97 CALM      30.22S
BROOMFIELD     DRIZZLE   41  41 100 CALM      30.22S FOG
FORT COLLINS   CLOUDY    41  39  93 SE8       30.25R
LONGMONT       CLOUDY    44  42  93 E3        30.25R
$$

COZ041-046-047-076>085-087-088-211400-
...PIKES PEAK/PALMER DIVIDE AND SOUTHERN FOOTHILLS...

CITY           SKY/WX    TMP DP  RH WIND       PRES   REMARKS
COLO. SPRINGS  FOG       38  38 100 S10       30.28S VSB 1/4
A. F. ACADEMY  CLOUDY    37  37 100 SE12      30.26S FOG
ELLICOTT       NOT AVBL
FALCON         FOG       36  36 100 S9        30.27S VSB 1/4
FORT CARSON    FOG       39  39 100 S10       30.27R VSB 1/4
LIMON          CLOUDY    38  37  97 S12       30.28R FOG
MONUMENT HILL  CLOUDY    36  34  93 MISG      30.23S
TRINIDAD       CLOUDY    46  42  86 NW8       30.25R
$$

COZ042>045-048>051-090-091-211400-
...NORTHEAST COLORADO...

CITY           SKY/WX    TMP DP  RH WIND       PRES   REMARKS
GREELEY ARPT   CLOUDY    43  37  81 E8        30.25R
AKRON          CLOUDY    41  37  86 S12       30.28R
BURLINGTON     CLOUDY    43  36  76 S9        30.30R
WRAY           CLOUDY    45  41  88 CALM      30.30S
STERLING       CLOUDY    43  37  81 CALM      30.26S
HOLYOKE        NOT AVBL
FORT MORGAN    CLOUDY    42  36  81 SE12      30.27R
$$

COZ086-089-092>099-211400-
...SOUTHEAST COLORADO...

CITY           SKY/WX    TMP DP  RH WIND       PRES   REMARKS
PUEBLO         CLOUDY    42  41  96 E9        30.27S FOG
LA JUNTA       CLOUDY    44  40  85 E15       30.28R
LAMAR          CLOUDY    45  38  76 SE9       30.29R
SPRINGFIELD      N/A     41  39  93 SE9       30.30R
$$



USA.gov is the U.S. government's official web portal to all federal, state and local government web resources and services.